www.pogodaiklimat.ru

Погода и климат >> Архив погоды >> Норвегия >> Бляшу


ПОГОДА в Бляшу

  • Прогноз погоды в Бляшу
  • Монитор погоды в Бляшу

АРХИВ ПОГОДЫ в Бляшу

Время (UTC), дата Ветер
(напр.,м/с)
 
Видим.   Явления Облачность Т
(С)
Тd
(С)
f
(%)
Тe
(С)
Тes
(С)
Комфортность P
(гПа)
Po
(гПа)
Тmin
(С)
Tmax
(С)
R
(мм)
R24
(мм)
S
(см)
04 12.06 В 10
{16}
н/о н/о +5.0 0 0 1021.6 894.0
05 12.06 В 10
{15}
н/о н/о +4.5 -1 -1 1021.7 893.8
06 12.06 В 7
{17}
н/о н/о +4.9 +1 +1 1021.6 893.6 +4.4 +9.3
07 12.06 В 9
{12}
н/о н/о +5.1 +1 +1 1021.1 893.4
08 12.06 В 10
{14}
н/о н/о +5.4 +1 +1 1020.5 893.0
10 12.06 В 12
{14}
н/о н/о +6.1 +1 +1 1019.4 892.1
11 12.06 В 9
{16}
н/о н/о +8.2 +5 +5 1018.7 891.9
12 12.06 В 8 н/о н/о +8.5 +5 +5 1017.7 891.8
13 12.06 В 8
{12}
н/о н/о +6.4 +3 +3 1018.7 891.9
14 12.06 В 8
{11}
н/о н/о +5.4 +1 +1 1018.9 891.7
15 12.06 В 7
{10}
н/о н/о +5.6 +2 +2 1018.4 891.3
16 12.06 В 8
{10}
н/о н/о +5.4 +1 +1 1017.9 890.9
17 12.06 В 8
{10}
н/о н/о +5.0 +1 +1 1017.3 890.2
18 12.06 В 7
{12}
н/о н/о +5.2 +1 +1 1016.5 889.4
19 12.06 В 8
{10}
н/о н/о +4.7 0 0 1015.7 888.6
20 12.06 В 8
{10}
н/о н/о +4.4 -0 -0 1015.7 888.5
21 12.06 ЮВ 5
{10}
н/о н/о +4.4 +1 +1 1015.5 888.4
22 12.06 В 6
{8}
н/о н/о +4.7 +1 +1 1014.5 887.4
23 12.06 В 5
{7}
н/о н/о +4.7 +2 +2 1013.2 886.4
00 13.06 В 5
{10}
н/о н/о +4.5 +1 +1 1011.8 885.0
02 13.06 В 5
{12}
н/о н/о +4.5 +1 +1 1009.5 883.1
03 13.06 В 9
{11}
н/о н/о +4.2 -1 -1 1008.7 882.2
04 13.06 В 5
{11}
н/о н/о +4.2 +1 +1 1008.5 882.0
05 13.06 В 11
{14}
н/о н/о +4.3 -1 -1 1007.3 881.1
06 13.06 ЮВ 11 н/о н/о +4.3 -1 -1 1008.1 881.7
07 13.06 В 9
{12}
н/о н/о +4.5 -0 -0 1008.2 881.9
08 13.06 В 6
{10}
н/о н/о +4.8 +1 +1 1008.8 882.5
09 13.06 В 5
{10}
н/о н/о +5.2 +2 +2 1009.1 882.9
10 13.06 ЮВ 8
{11}
н/о н/о +5.7 +2 +2 1008.4 882.5
11 13.06 ЮВ 10
{13}
н/о н/о +6.5 +2 +2 1008.5 882.6
12 13.06 ЮВ 11
{13}
н/о н/о +7.0 +3 +3 1008.9 883.5
13 13.06 ЮВ 8
{12}
н/о н/о +8.3 +5 +5 1009.6 884.3
14 13.06 ЮВ 8
{10}
н/о н/о +8.4 +5 +5 1009.7 884.7
15 13.06 ЮВ 8
{11}
н/о н/о +8.0 +5 +5 1010.3 885.1
16 13.06 ЮВ 8
{12}
н/о н/о +7.9 +4 +4 1010.6 885.4
17 13.06 ЮВ 10
{12}
н/о н/о +8.1 +4 +4 1010.7 885.6
19 13.06 ЮВ 11
{15}
н/о н/о +7.5 +3 +3 1011.7 886.3
21 13.06 ЮВ 8
{13}
н/о н/о +6.1 +2 +2 1013.7 887.5
22 13.06 ЮВ 7
{12}
н/о н/о +5.8 +2 +2 1014.4 887.9
23 13.06 ЮВ 6
{10}
н/о н/о +5.7 +2 +2 1014.9 888.3
00 14.06 ЮВ 7 н/о н/о +5.9 +2 +2 1015.0 888.4
01 14.06 ЮВ 7
{9}
н/о н/о +5.4 +2 +2 1015.4 888.6
02 14.06 В 7
{9}
н/о н/о +5.0 +1 +1 1015.8 888.8
03 14.06 ЮВ 6
{9}
н/о н/о +4.9 +1 +1 1015.8 888.8
04 14.06 В 6
{9}
н/о н/о +5.1 +2 +2 1015.9 888.8
05 14.06 В 8
{9}
н/о н/о +5.3 +1 +1 1015.9 888.9
06 14.06 В 8
{11}
н/о н/о +5.5 +1 +1 1015.9 889.0
07 14.06 В 10
{13}
н/о н/о +5.9 +1 +1 1015.7 888.9
08 14.06 В 9
{10}
н/о н/о +6.5 +2 +2 1016.0 889.4
09 14.06 ЮВ 8
{10}
н/о н/о +7.2 +4 +4 1016.5 890.1
10 14.06 ЮВ 9
{12}
н/о н/о +8.3 +5 +5 1016.9 890.6
11 14.06 ЮВ 7
{10}
н/о н/о +7.5 +4 +4 1017.2 891.0
12 14.06 ЮВ 4
{13}
н/о н/о +7.7 +6 +6 1017.3 891.1
13 14.06 ЮВ 9
{10}
н/о н/о +8.6 +5 +5 1017.4 891.3
14 14.06 ЮВ 6
{9}
н/о н/о +8.3 +6 +6 1017.9 891.7
15 14.06 ЮВ 10
{13}
н/о н/о +8.4 +5 +5 1017.3 891.6
16 14.06 ЮВ 11
{14}
н/о н/о +8.8 +5 +5 1016.6 890.9
17 14.06 ЮВ 6
{12}
н/о н/о +8.3 +6 +6 1017.8 891.9
18 14.06 ЮВ 5
{14}
н/о н/о +9.0 +7 +7 1018.2 892.2 +5.4 +9.7
19 14.06 ЮВ 7
{9}
н/о н/о +8.2 +5 +5 1018.2 892.2
20 14.06 ЮВ 5
{11}
н/о н/о +7.1 +5 +5 1019.0 892.5
21 14.06 ЮВ 6
{7}
н/о н/о +7.1 +4 +4 1019.7 893.0
22 14.06 ЮВ 3
{7}
н/о н/о +5.9 +4 +4 1020.4 893.2
23 14.06 ЮВ 3
{4}
н/о н/о +5.4 +4 +4 1020.8 893.3
00 15.06 В 3
{11}
н/о н/о +4.8 +3 +3 1021.2 893.5
02 15.06 В 3
{4}
н/о н/о +5.0 +3 +3 1021.2 893.4
03 15.06 В 4
{5}
н/о н/о +5.2 +3 +3 1020.8 893.0
04 15.06 В 2
{4}
н/о н/о +5.9 +5 +5 1020.2 892.7
05 15.06 ЮВ 4
{5}
н/о н/о +6.0 +4 +4 1020.1 892.9
06 15.06 В 6 н/о н/о +7.2 +4 +4 1019.9 892.8
07 15.06 В 7
{9}
н/о н/о +8.4 +5 +5 1019.4 892.9
08 15.06 В 6
{8}
н/о н/о +9.8 +7 +7 1018.8 892.9
09 15.06 В 6
{8}
н/о н/о +10.9 +9 +9 1017.9 892.6
10 15.06 В 7
{8}
н/о н/о +12.5 +11 +11 1017.0 892.3
11 15.06 В 8
{10}
н/о н/о +13.4 +11 +11 1015.9 892.0
12 15.06 В 8
{10}
н/о н/о +14.5 +13 +13 1014.8 891.4
13 15.06 В 9
{11}
н/о н/о +14.5 +13 +13 1014.1 891.2
14 15.06 В 9
{12}
н/о н/о +14.5 +13 +13 1013.8 890.8
15 15.06 В 6
{12}
н/о н/о +14.3 +13 +13 1014.1 891.0
16 15.06 В 7
{10}
н/о н/о +13.5 +12 +12 1013.7 890.4
17 15.06 ЮВ 8
{11}
н/о н/о +10.3 +8 +8 1015.3 890.5
18 15.06 В 7
{12}
н/о н/о +9.8 +7 +7 1014.9 890.0 +7.2 +15.3
19 15.06 В 6
{9}
н/о н/о +9.9 +8 +8 1014.5 889.7
20 15.06 ЮВ 7
{9}
н/о н/о +9.6 +7 +7 1014.2 889.3
21 15.06 ЮВ 7
{10}
н/о н/о +9.8 +7 +7 1014.3 889.3
22 15.06 ЮВ 11
{13}
н/о н/о +9.9 +6 +6 1013.2 888.4
23 15.06 В 7 н/о н/о +9.4 1013.4 888.5
00 16.06 ЮВ 10
{13}
н/о н/о +9.2 +6 +6 1012.7 887.8
01 16.06 ЮВ 11
{13}
н/о н/о +9.4 +6 +6 1012.2 887.3
02 16.06 ЮВ 11
{14}
н/о н/о +9.4 +6 +6 1011.7 886.9
03 16.06 ЮВ 10
{14}
н/о н/о +8.9 +5 +5 1012.0 887.1
04 16.06 ЮВ 8
{12}
н/о н/о +8.8 +6 +6 1012.4 887.2
05 16.06 ЮВ 6
{10}
н/о н/о +7.8 +5 +5 1013.0 887.6
06 16.06 ЮВ 6
{14}
н/о н/о +8.0 +5 +5 1013.4 887.8 +7.6 +10.6
07 16.06 ЮВ 3
{7}
н/о н/о +8.0 +7 +7 1013.6 888.1
08 16.06 ЮВ 4
{5}
н/о н/о +7.7 +6 +6 1014.1 888.4
09 16.06 Ю 4
{5}
н/о н/о +8.5 +7 +7 1014.4 888.7
10 16.06 Ю 3
{4}
н/о н/о +9.4 +8 +8 1014.2 888.9
11 16.06 З 5
{5}
н/о н/о +8.4 +6 +6 1014.7 889.3
12 16.06 З 4
{7}
н/о н/о +9.1 +7 +7 1015.3 889.6
14 16.06 ЮЗ 4
{6}
н/о н/о +11.1 +10 +10 1014.4 890.0
15 16.06 ЮЗ 4
{5}
н/о н/о +11.7 +10 +10 1014.2 889.9
16 16.06 З 4
{7}
н/о н/о +10.7 +9 +9 1014.4 890.0
17 16.06 З 4
{5}
н/о н/о +8.8 +7 +7 1015.3 890.0
18 16.06 З 4 н/о н/о +8.3 +6 +6 1015.8 890.2
19 16.06 З 4
{6}
н/о н/о +8.1 +6 +6 1016.0 890.2
21 16.06 ЮЗ 4
{6}
н/о н/о +6.6 +4 +4 1017.0 890.5
22 16.06 ЮЗ 3
{5}
н/о н/о +5.9 +4 +4 1017.4 890.6
23 16.06 ЮЗ 5
{5}
н/о н/о +5.4 +2 +2 1017.7 890.7
00 17.06 ЮЗ 3 н/о н/о +5.0 +3 +3 1017.9 890.6
01 17.06 З 1
{4}
н/о н/о +4.3 +5 +5 1018.3 890.7
02 17.06 ЮЗ 1
{2}
н/о н/о +4.0 +4 +4 1018.2 890.5
03 17.06 Ю 1
{1}
н/о н/о +4.1 +4 +4 1018.0 890.3
04 17.06 ЮВ 2
{2}
н/о н/о +4.4 +3 +3 1017.7 890.2
05 17.06 ЮВ 3
{3}
н/о н/о +4.8 +3 +3 1017.5 890.1
06 17.06 Ю 5
{5}
н/о н/о +5.9 +3 +3 1017.2 890.0
07 17.06 Ю 7
{9}
н/о н/о +6.7 +3 +3 1017.1 890.3
10 17.06 Ю 8
{12}
н/о н/о +8.6 +5 +5 1015.8 890.1
11 17.06 Ю 8
{11}
н/о н/о +8.3 +5 +5 1015.8 890.2
12 17.06 Ю 8 н/о н/о +8.4 +5 +5 1015.8 890.0
13 17.06 Ю 8
{11}
н/о н/о +8.4 +5 +5 1015.4 889.8
14 17.06 Ю 8
{11}
н/о н/о +8.4 +5 +5 1015.1 889.6
16 17.06 Ю 6
{10}
н/о н/о +7.2 +4 +4 1015.6 889.6
18 17.06 Ю 5 н/о н/о +7.1 +5 +5 1015.2 889.1
19 17.06 Ю 6
{8}
н/о н/о +7.2 +4 +4 1015.2 889.1
20 17.06 Ю 7
{8}
н/о н/о +7.1 +4 +4 1015.2 889.1
21 17.06 Ю 6
{9}
н/о н/о +7.0 +4 +4 1015.4 889.3
23 17.06 Ю 7
{10}
н/о н/о +6.5 +3 +3 1015.0 888.7
00 18.06 Ю 7 н/о н/о +6.7 +3 +3 1014.7 888.5
01 18.06 Ю 6
{10}
н/о н/о +6.8 +4 +4 1014.5 888.4
02 18.06 ЮЗ 6
{10}
н/о н/о +6.9 +4 +4 1014.0 888.0
03 18.06 ЮЗ 4
{6}
н/о н/о +6.6 +4 +4 1014.1 888.0
04 18.06 З 4
{7}
н/о н/о +6.5 +4 +4 1013.9 887.8
05 18.06 З 7
{10}
н/о н/о +4.9 +1 +1 1015.0 888.1
06 18.06 З 3
{10}
н/о н/о +5.0 +3 +3 1014.8 887.8
07 18.06 ЮВ 2
{2}
н/о н/о +5.1 +4 +4 1014.4 887.6
08 18.06 ЮВ 1
{3}
н/о н/о +5.4 +6 +6 1014.5 887.7
09 18.06 В 1
{3}
н/о н/о +6.4 +7 +7 1014.2 887.6
10 18.06 Ю 4
{6}
н/о н/о +8.0 +6 +6 1013.6 887.5
11 18.06 ЮЗ 6
{9}
н/о н/о +9.3 +7 +7 1013.0 887.5
12 18.06 ЮЗ 7
{10}
н/о н/о +8.3 +5 +5 1012.7 887.5
13 18.06 ЮЗ 7
{10}
н/о н/о +8.0 +5 +5 1012.9 887.5
15 18.06 ЮЗ 6
{9}
н/о н/о +9.2 +7 +7 1012.1 887.0
16 18.06 ЮЗ 7
{9}
н/о н/о +8.9 +6 +6 1011.9 886.9
17 18.06 ЮЗ 5
{8}
н/о н/о +8.6 +6 +6 1011.9 886.9
18 18.06 ЮЗ 6 н/о н/о +8.7 +6 +6 1011.9 886.9
19 18.06 ЮЗ 5
{8}
н/о н/о +7.7 +5 +5 1012.1 886.7
20 18.06 ЮЗ 4
{6}
н/о н/о +6.8 +5 +5 1012.8 887.0
21 18.06 З 5
{6}
н/о н/о +6.1 +3 +3 1013.1 886.9
22 18.06 З 3
{6}
н/о н/о +5.7 +4 +4 1013.4 887.0
23 18.06 З 2
{3}
н/о н/о +5.5 +5 +5 1013.3 886.9
00 19.06 ЮЗ 2
{8}
н/о н/о +5.2 +4 +4 1013.4 886.8
01 19.06 ЮЗ 2
{3}
н/о н/о +4.9 +4 +4 1013.4 886.7
02 19.06 Ю 1
{2}
н/о н/о +4.5 +5 +5 1013.4 886.5
03 19.06 Ю 2
{2}
н/о н/о +4.7 +4 +4 1013.6 886.5

 

Местоположение метеостанции Бляшу (Норвегия): широта 59.33 долгота 6.88 высота над уровнем моря 1105 м.

В архиве по умолчанию представлена погода в Бляшу за последнюю неделю. Архивные данные за месяц целиком и за предыдущие месяцы, начиная с января 2011 года, Вы можете получить, выбрав интересующий диапазон дат из раскрывающегося списка и нажав кнопку "Ввод!".


*Определитесь, кто Вы:
робот инопланетянин человек

Внимание! Время в таблицах - всемирное. Для получения местного времени необходимо прибавить поправку, которая равна 1 ч.

Смотрите также архив погоды в соседних городах и на ближайших метеорологических станциях:

Погода в Ховдене (Норвегия) (40 км)
Погода в Валле (Норвегия) (40 км)
Погода в Сирдал-Синнесе (Норвегия) (46 км)
Погода в Сауде (Норвегия) (47 км)
Погода в Фистере (Норвегия) (52 км)
Погода на Лярватне (Норвегия) (53 км)
Погода в Вагсли (Норвегия) (56 км)
Погода в Хаукелисетере (Норвегия) (56 км)
Погода в Недре Ватс (Норвегия) (68 км)
Погода в Хойдалсмо (Норвегия) (77 км)

Пояснения к столбцам:

Ветер - указаны скорость ветра в м/с - средняя за 10 мин, порывы в срок и между сроками (в фигурных скобках) и направление, откуда дует ветер: С - северный, СВ - северо-восточный, В - восточный, ЮВ - юго-восточный, Ю - южный, ЮЗ - юго-западный, З - западный, СЗ - северо-западный.
Видимость - горизонтальная дальность видимости в метрах или километрах. При видимости от 1 до 10 км при отсутствии осадков обычно наблюдается дымка, при ухудшении видимости до 1 км и менее - туман. В сухую погоду видимость может ухудшаться дымом, пылью или мглою.
Явления - указаны атмосферные явления, наблюдавшиеся в срок или в последний час перед сроком; фигурными скобками обозначены явления, наблюдавшиеся между сроками (за 1-3 часа до срока); квадратными скобками обозначены град или гололедные отложения с указанием их диаметра в мм.
Облачность - указаны через наклонную черту общая и нижняя облачность в баллах и высота нижней границы облаков в метрах; квадратными скобками обозначены формы облаков: Ci - перистые, Cs - перисто-слоистые, Cc - перисто-кучевые, Ac - высококучевые, As - высокослоистые, Sc - слоисто-кучевые, Ns - слоисто-дождевые, Cu - кучевые, Cb - кучево-дождевые. Подробнее классификацию облаков см. в Атласе облаков (PDF).
T - Температура воздуха - температура, измеренная на высоте 2 м над землей.
Td - Температура точки росы - температура, при понижении до которой содержащийся в воздухе водяной пар достигнет насыщения.
f - Относительная влажность воздуха - влажноcть воздуха, измеренная на высоте 2 м над землей.
Te - Эффективная температура - температура, которую ощущает одетый по сезону человек в тени. Характеристика душности погоды. При расчете учитывается влияние влажности воздуха и скорости ветра на теплоощущения человека.
Tes - Эффективная температура на солнце - температура, которую ощущает человек, с поправкой на солнечный нагрев. Характеристика знойности погоды. Зависит от высоты солнца над горизонтом, облачности и скорости ветра. Ночью, в пасмурную погоду, а также при ветре 12 м/с и более поправка равна нулю.
P - Атмосферное давление - приведенное к уровню моря атмосферное давление.
Po - Атмосферное давление - измеренное на уровне метеостанции атмосферное давление.
Tmin - Минимальная температура - минимум температуры воздуха на высоте 2 м над землей.
Tmax - Максимальная температура - максимум температуры воздуха на высоте 2 м над землей.
R - Количество осадков - Количество выпавших осадков за период времени, мм. При наведении курсора мыши на число - период времени, за который выпало указанное количество осадков.
R24 - Количество осадков - Количество выпавших осадков за 24 часа, мм.
S - Снежный покров - Высота снежного покрова, см. При наведении курсора мыши на число - состояние снежного покрова и степень покрытия местности в баллах.